Location: The Saddle
(36.8333°N, 80.3417°W)
Time: 02:18:39
(UTC-04:00)

Tiros 1 - Visible Passes

Search period start: 28 September 2022 00:00
Search period end: 08 October 2022 00:00
Orbit: 629 x 663 km, 48.4° (Epoch: 27 September)

Date Brightness Start Highest point End Pass type
(mag) Time Alt. Az. Time Alt. Az. Time Alt. Az.
28 Sep 10.2 03:47:12 11° NE 03:47:12 11° NE 03:47:29 10° NE visible
28 Sep 9.1 05:24:51 16° NNW 05:26:37 20° N 05:30:06 10° NE visible
29 Sep 9.8 04:11:47 16° NNE 04:11:47 16° NNE 04:13:09 10° NE visible
29 Sep 9.1 05:49:25 11° NW 05:52:52 22° N 05:56:34 10° ENE visible
30 Sep 9.4 04:36:23 19° NNE 04:36:23 19° NNE 04:39:10 10° NE visible
30 Sep 8.7 06:14:46 10° NW 06:18:58 30° NNE 06:23:08 10° E visible
01 Oct 9.0 05:01:03 21° N 05:01:55 22° N 05:05:35 10° ENE visible
01 Oct 7.9 06:40:17 10° NW 06:44:54 51° NNE 06:49:28 10° ESE visible
02 Oct 10.3 03:48:08 10° NE 03:48:08 10° NE 03:48:14 10° NE visible
02 Oct 8.8 05:25:47 20° NNW 05:28:03 29° NNE 05:32:10 10° E visible
03 Oct 9.8 04:12:57 17° NE 04:12:57 17° NE 04:14:37 10° ENE visible
03 Oct 8.0 05:50:37 17° NW 05:54:01 48° NNE 05:58:33 10° ESE visible
04 Oct 9.0 04:37:53 27° NE 04:37:53 27° NE 04:41:12 10° ENE visible
04 Oct 7.1 06:15:34 13° NW 06:19:44 87° SW 06:24:26 10° SE visible
05 Oct 8.0 05:02:57 44° NNE 05:03:06 44° NNE 05:07:37 10° E visible
05 Oct 7.8 06:40:51 10° WNW 06:45:14 38° SW 06:49:33 10° SSE visible
06 Oct 7.1 05:28:08 64° NW 05:28:51 86° NE 05:33:34 10° SE visible
07 Oct 9.9 04:15:47 15° E 04:15:47 15° E 04:16:40 10° E visible
07 Oct 7.5 05:53:29 38° WSW 05:54:23 42° SW 05:58:48 10° SSE visible
